NPV7634 PASI-PAYA

Flight info

Callsign NPV7634
Flight time 0h 44m
Altitude 34000
Route BKA
Aircraft B737/M-SDE2E3FGHIRWXY/LB1

Departure

Time 2026-04-13 19:55
Airport Sitka Rocky Gutierrez Airport (PASI)

Arrival

Time 2026-04-13 20:40
Airport Yakutat Airport (PAYA)
Time Latitude Longitude Altitude Speed Heading
2026-04-13 19:29 57.05335 -135.36819 34 ft 0 kts 135°
2026-04-13 19:45 57.05320 -135.36799 33 ft 4 kts 162°
2026-04-13 19:45 57.05277 -135.36847 33 ft 10 kts 216°
2026-04-13 19:45 57.05228 -135.36827 35 ft 7 kts 154°
2026-04-13 19:45 57.05183 -135.36752 33 ft 12 kts 135°
2026-04-13 19:46 57.05076 -135.36536 33 ft 33 kts 135°
2026-04-13 19:46 57.04939 -135.36323 34 ft 12 kts 165°
2026-04-13 19:46 57.04936 -135.36322 32 ft 0 kts 167°
2026-04-13 19:50 57.04935 -135.36322 32 ft 1 kts 167°
2026-04-13 19:51 57.04894 -135.36311 34 ft 8 kts 180°
2026-04-13 19:51 57.04850 -135.36311 34 ft 11 kts 180°
2026-04-13 19:51 57.04781 -135.36295 36 ft 4 kts 129°
2026-04-13 19:51 57.04752 -135.36239 37 ft 8 kts 135°
2026-04-13 19:52 57.04698 -135.36141 35 ft 16 kts 135°
2026-04-13 19:52 57.04564 -135.35897 35 ft 38 kts 135°
2026-04-13 19:52 57.04381 -135.35563 35 ft 34 kts 135°
2026-04-13 19:52 57.04229 -135.35282 34 ft 29 kts 135°
2026-04-13 19:53 57.04087 -135.35030 36 ft 27 kts 138°
2026-04-13 19:53 57.03983 -135.34878 33 ft 7 kts 98°
2026-04-13 19:53 57.03998 -135.34882 32 ft 2 kts 325°
2026-04-13 19:53 57.04003 -135.34892 34 ft 0 kts 312°
2026-04-13 19:54 57.04089 -135.35043 34 ft 52 kts 316°
2026-04-13 19:55 57.04532 -135.35841 35 ft 124 kts 316°
2026-04-13 19:55 57.05251 -135.37176 304 ft 161 kts 311°
2026-04-13 19:55 57.05985 -135.38641 1294 ft 152 kts 297°
2026-04-13 19:55 57.06031 -135.40508 1935 ft 158 kts 239°
2026-04-13 19:56 57.05134 -135.41800 2454 ft 183 kts 198°
2026-04-13 19:56 57.03811 -135.42547 2850 ft 214 kts 198°
2026-04-13 19:56 57.02332 -135.43424 3409 ft 231 kts 198°
2026-04-13 19:56 57.00744 -135.44417 4033 ft 249 kts 200°
2026-04-13 19:57 56.99119 -135.45508 5272 ft 246 kts 201°
2026-04-13 19:57 56.97508 -135.46648 6426 ft 249 kts 202°
2026-04-13 19:57 56.95888 -135.47823 7491 ft 253 kts 202°
2026-04-13 19:57 56.94231 -135.49037 8510 ft 256 kts 202°
2026-04-13 19:58 56.92698 -135.50684 9608 ft 261 kts 223°
2026-04-13 19:58 56.91685 -135.53493 10449 ft 273 kts 247°
2026-04-13 19:58 56.91380 -135.57092 10788 ft 307 kts 272°
2026-04-13 19:58 56.92116 -135.60949 11079 ft 340 kts 302°
2026-04-13 19:59 56.93886 -135.63928 11849 ft 354 kts 325°
2026-04-13 19:59 56.96049 -135.66169 12745 ft 361 kts 331°
2026-04-13 19:59 56.98310 -135.68239 13693 ft 366 kts 332°
2026-04-13 19:59 57.00607 -135.70305 14603 ft 369 kts 332°
2026-04-13 20:00 57.02915 -135.72422 15566 ft 372 kts 331°
2026-04-13 20:00 57.05231 -135.74605 16503 ft 377 kts 330°
2026-04-13 20:00 57.07534 -135.76827 17354 ft 381 kts 330°
2026-04-13 20:00 57.09889 -135.79142 18221 ft 385 kts 329°
2026-04-13 20:01 57.12256 -135.81497 19019 ft 388 kts 329°
2026-04-13 20:01 57.14643 -135.83894 19829 ft 391 kts 328°
2026-04-13 20:01 57.17040 -135.86314 20606 ft 395 kts 328°
2026-04-13 20:01 57.19464 -135.88769 21346 ft 399 kts 327°
2026-04-13 20:02 57.21909 -135.91251 22086 ft 403 kts 327°
2026-04-13 20:02 57.24377 -135.93761 22802 ft 407 kts 327°
2026-04-13 20:02 57.26874 -135.96303 23459 ft 411 kts 326°
2026-04-13 20:02 57.29391 -135.98871 24034 ft 416 kts 327°
2026-04-13 20:03 57.31937 -136.01470 24553 ft 420 kts 327°
2026-04-13 20:03 57.34511 -136.04103 25072 ft 424 kts 327°
2026-04-13 20:03 57.37107 -136.06760 25585 ft 428 kts 327°
2026-04-13 20:03 57.39730 -136.09450 26083 ft 432 kts 327°
2026-04-13 20:04 57.42339 -136.12131 26558 ft 436 kts 327°
2026-04-13 20:04 57.45038 -136.14909 27009 ft 440 kts 327°
2026-04-13 20:04 57.47693 -136.17646 27469 ft 444 kts 327°
2026-04-13 20:04 57.50408 -136.20450 27915 ft 448 kts 327°
2026-04-13 20:05 57.53146 -136.23282 28338 ft 452 kts 327°
2026-04-13 20:05 57.55905 -136.26137 28752 ft 456 kts 327°
2026-04-13 20:05 57.58690 -136.29026 29120 ft 460 kts 327°
2026-04-13 20:05 57.61491 -136.31939 29550 ft 462 kts 327°
2026-04-13 20:06 57.64297 -136.34862 30050 ft 461 kts 327°
2026-04-13 20:06 57.67097 -136.37781 30565 ft 459 kts 327°
2026-04-13 20:06 57.69880 -136.40689 31036 ft 458 kts 327°
2026-04-13 20:06 57.72664 -136.43604 31448 ft 459 kts 327°
2026-04-13 20:07 57.75452 -136.46529 31845 ft 459 kts 327°
2026-04-13 20:07 57.78235 -136.49454 32287 ft 459 kts 327°
2026-04-13 20:07 57.81017 -136.52383 32749 ft 458 kts 328°
2026-04-13 20:07 57.83797 -136.55312 33153 ft 458 kts 328°
2026-04-13 20:08 57.86577 -136.58251 33542 ft 458 kts 328°
2026-04-13 20:08 57.89362 -136.61202 33638 ft 463 kts 328°
2026-04-13 20:08 57.94971 -136.67159 33649 ft 462 kts 328°
2026-04-13 20:09 58.00530 -136.73078 33648 ft 456 kts 328°
2026-04-13 20:09 58.06057 -136.78988 33652 ft 457 kts 327°
2026-04-13 20:10 58.11590 -136.84919 33630 ft 458 kts 328°
2026-04-13 20:10 58.17127 -136.90886 33649 ft 458 kts 328°
2026-04-13 20:11 58.22671 -136.96884 33643 ft 459 kts 328°
2026-04-13 20:11 58.28220 -137.02902 33637 ft 459 kts 328°
2026-04-13 20:12 58.33773 -137.08946 33652 ft 460 kts 328°
2026-04-13 20:12 58.39329 -137.15015 33635 ft 460 kts 328°
2026-04-13 20:13 58.44879 -137.21098 33644 ft 460 kts 328°
2026-04-13 20:13 58.50396 -137.27166 33645 ft 460 kts 327°
2026-04-13 20:14 58.55944 -137.33320 33638 ft 461 kts 327°
2026-04-13 20:14 58.61489 -137.39458 33640 ft 460 kts 328°
2026-04-13 20:15 58.67028 -137.45621 33628 ft 460 kts 328°
2026-04-13 20:15 58.72569 -137.51807 33636 ft 460 kts 328°
2026-04-13 20:16 58.78108 -137.58025 33629 ft 460 kts 327°
2026-04-13 20:16 58.83599 -137.64219 33619 ft 460 kts 328°
2026-04-13 20:17 58.89119 -137.70454 33617 ft 459 kts 328°
2026-04-13 20:17 58.94635 -137.76692 33612 ft 459 kts 328°
2026-04-13 20:18 58.99474 -137.84522 33612 ft 454 kts 302°
2026-04-13 20:18 59.02638 -137.95127 33619 ft 454 kts 298°
2026-04-13 20:19 59.05708 -138.05882 33607 ft 456 kts 298°
2026-04-13 20:19 59.08852 -138.16589 33612 ft 457 kts 299°
2026-04-13 20:20 59.12035 -138.27407 32628 ft 464 kts 299°
2026-04-13 20:20 59.13625 -138.32840 31759 ft 463 kts 299°
2026-04-13 20:20 59.15220 -138.38308 30854 ft 464 kts 299°
2026-04-13 20:21 59.16814 -138.43786 29893 ft 465 kts 299°
2026-04-13 20:21 59.18409 -138.49284 28765 ft 466 kts 299°
2026-04-13 20:21 59.19982 -138.54713 28355 ft 450 kts 298°
2026-04-13 20:21 59.21521 -138.60034 27312 ft 449 kts 298°
2026-04-13 20:22 59.23038 -138.65298 26574 ft 442 kts 298°
2026-04-13 20:22 59.24536 -138.70509 25853 ft 437 kts 299°
2026-04-13 20:22 59.25993 -138.75587 25151 ft 432 kts 299°
2026-04-13 20:22 59.27453 -138.80685 24462 ft 427 kts 299°
2026-04-13 20:23 59.28897 -138.85736 23783 ft 423 kts 299°
2026-04-13 20:23 59.30323 -138.90737 23083 ft 419 kts 299°
2026-04-13 20:23 59.31735 -138.95701 22283 ft 415 kts 299°
2026-04-13 20:23 59.33132 -139.00621 21588 ft 410 kts 299°
2026-04-13 20:24 59.34507 -139.05475 20909 ft 405 kts 299°
2026-04-13 20:24 59.35866 -139.10278 20237 ft 401 kts 299°
2026-04-13 20:24 59.37214 -139.15050 19554 ft 398 kts 300°
2026-04-13 20:24 59.38549 -139.19793 18871 ft 396 kts 299°
2026-04-13 20:25 59.39856 -139.24455 18181 ft 395 kts 300°
2026-04-13 20:25 59.41178 -139.29174 17459 ft 393 kts 300°
2026-04-13 20:25 59.42492 -139.33872 16765 ft 390 kts 300°
2026-04-13 20:25 59.43792 -139.38524 16191 ft 383 kts 300°
2026-04-13 20:26 59.45054 -139.43054 15831 ft 373 kts 300°
2026-04-13 20:26 59.46290 -139.47512 15207 ft 369 kts 300°
2026-04-13 20:26 59.47517 -139.51915 14578 ft 366 kts 300°
2026-04-13 20:26 59.48731 -139.56281 13954 ft 362 kts 299°
2026-04-13 20:27 59.49927 -139.60616 13318 ft 359 kts 299°
2026-04-13 20:27 59.50961 -139.65066 12618 ft 357 kts 285°
2026-04-13 20:27 59.51246 -139.69896 11952 ft 354 kts 271°
2026-04-13 20:27 59.51276 -139.74732 11294 ft 351 kts 269°
2026-04-13 20:28 59.51270 -139.79533 10658 ft 349 kts 269°
2026-04-13 20:28 59.51269 -139.84245 10369 ft 336 kts 270°
2026-04-13 20:28 59.51276 -139.88748 10210 ft 321 kts 270°
2026-04-13 20:28 59.51290 -139.93052 10078 ft 307 kts 270°
2026-04-13 20:29 59.51309 -139.97185 9876 ft 297 kts 270°
2026-04-13 20:29 59.51329 -140.01232 9507 ft 294 kts 270°
2026-04-13 20:29 59.51348 -140.05202 9093 ft 293 kts 270°
2026-04-13 20:29 59.51366 -140.09192 8671 ft 291 kts 269°
2026-04-13 20:30 59.51421 -140.13153 8305 ft 287 kts 277°
2026-04-13 20:30 59.52133 -140.16730 8106 ft 279 kts 307°
2026-04-13 20:30 59.53597 -140.19134 7705 ft 273 kts 341°
2026-04-13 20:30 59.55419 -140.19766 7375 ft 265 kts
2026-04-13 20:31 59.57240 -140.19379 7014 ft 262 kts 13°
2026-04-13 20:31 59.58995 -140.18484 6640 ft 259 kts 22°
2026-04-13 20:31 59.60681 -140.17255 6280 ft 257 kts 25°
2026-04-13 20:31 59.62325 -140.15867 5914 ft 256 kts 26°
2026-04-13 20:32 59.63925 -140.14359 5551 ft 254 kts 31°
2026-04-13 20:32 59.65470 -140.12711 5212 ft 251 kts 33°
2026-04-13 20:32 59.66948 -140.10929 4895 ft 247 kts 36°
2026-04-13 20:32 59.68306 -140.08898 4530 ft 242 kts 52°
2026-04-13 20:33 59.68993 -140.05990 4207 ft 232 kts 84°
2026-04-13 20:33 59.68910 -140.02810 3863 ft 233 kts 105°
2026-04-13 20:33 59.68228 -139.99903 3589 ft 233 kts 128°
2026-04-13 20:33 59.67161 -139.97666 3534 ft 214 kts 134°
2026-04-13 20:34 59.66119 -139.95735 3436 ft 196 kts 136°
2026-04-13 20:34 59.65169 -139.93962 3325 ft 180 kts 134°
2026-04-13 20:34 59.64311 -139.92312 3225 ft 167 kts 134°
2026-04-13 20:34 59.63487 -139.90706 3147 ft 166 kts 134°
2026-04-13 20:35 59.62682 -139.89130 3060 ft 159 kts 134°
2026-04-13 20:35 59.61927 -139.87650 2950 ft 147 kts 134°
2026-04-13 20:35 59.61204 -139.86233 2882 ft 145 kts 134°
2026-04-13 20:35 59.60492 -139.84835 2754 ft 146 kts 134°
2026-04-13 20:36 59.59770 -139.83419 2570 ft 146 kts 134°
2026-04-13 20:36 59.59060 -139.82025 2360 ft 142 kts 134°
2026-04-13 20:36 59.58368 -139.80668 2176 ft 142 kts 134°
2026-04-13 20:36 59.57896 -139.79741 2040 ft 142 kts 133°
2026-04-13 20:37 59.56969 -139.77922 1776 ft 142 kts 134°
2026-04-13 20:37 59.56269 -139.76545 1558 ft 141 kts 134°
2026-04-13 20:37 59.55589 -139.75208 1386 ft 133 kts 133°
2026-04-13 20:37 59.54957 -139.73960 1213 ft 128 kts 133°
2026-04-13 20:38 59.54338 -139.72751 995 ft 122 kts 134°
2026-04-13 20:38 59.53937 -139.71961 874 ft 120 kts 134°
2026-04-13 20:38 59.53356 -139.70814 711 ft 119 kts 134°
2026-04-13 20:38 59.52766 -139.69658 566 ft 117 kts 134°
2026-04-13 20:39 59.52194 -139.68536 381 ft 120 kts 134°
2026-04-13 20:39 59.51603 -139.67361 210 ft 122 kts 133°
2026-04-13 20:39 59.50995 -139.66183 66 ft 123 kts 132°
2026-04-13 20:39 59.50443 -139.65093 44 ft 93 kts 135°
2026-04-13 20:40 59.50094 -139.64405 44 ft 49 kts 135°
2026-04-13 20:40 59.49949 -139.64112 40 ft 21 kts 136°
2026-04-13 20:40 59.49840 -139.63918 42 ft 21 kts 145°
2026-04-13 20:40 59.49813 -139.63842 44 ft 3 kts 329°
2026-04-13 20:41 59.49857 -139.63937 42 ft 23 kts 315°
2026-04-13 20:41 59.50044 -139.64296 42 ft 51 kts 314°
2026-04-13 20:41 59.50309 -139.64826 43 ft 54 kts 315°
2026-04-13 20:41 59.50575 -139.65348 46 ft 53 kts 315°
2026-04-13 20:42 59.50836 -139.65867 45 ft 53 kts 315°
2026-04-13 20:42 59.50973 -139.66141 45 ft 17 kts 314°
2026-04-13 20:42 59.50958 -139.66304 46 ft 14 kts 228°
2026-04-13 20:42 59.50880 -139.66456 48 ft 18 kts 224°
2026-04-13 20:43 59.50789 -139.66634 48 ft 14 kts 224°
2026-04-13 20:43 59.50770 -139.66699 48 ft 3 kts 335°
2026-04-13 20:43 59.50787 -139.66717 48 ft 2 kts 330°
2026-04-13 20:43 59.50797 -139.66728 46 ft 1 kts 330°
2026-04-13 20:44 59.50798 -139.66729 47 ft 0 kts 330°